Terminal Aerodrome Forecast
Issued by NWS Wilmington, OH

Home | Current Version | Previous Version | Text Only | Print | Product List | Glossary On
Versions: 1 2 3 4 5 6 7 8 9 10 11 12 13 14 15 16 17 18 19 20
671
FTUS41 KILN 270540
TAFCMH
TAF
KCMH 270540Z 2706/2806 16006KT P6SM OVC080
     FM271500 17007KT P6SM VCSH OVC050
     FM271700 17008KT P6SM VCSH OVC025
     FM272300 15005KT P6SM OVC040=

USA.gov is the U.S. government's official web portal to all federal, state and local government web resources and services.